sat.trackr.live / text

‹ back to catalog

CHAMRAN-1

NORAD 61072 · 2024-165B

PAYLOAD ACTIVE UNKNOWN

§ Identity

Operator
Country
IRAN
Launch date
2024-09-14
Launch site
SMTS
Launch vehicle
Mass (kg)
RCS (m²)

External: N2YO · Heavens-Above · Gunter

§ Orbital elements

Epoch: 2026-05-25T04:10:25.556160Z

Period
95.31 min
Inclination
64.0746°
Eccentricity
0.0051959
Mean motion
15.10874414 rev/d
Perigee alt
497.6 km
Apogee alt
569.4 km
Semi-major
6,911.7 km
B*
2.6470e-4
RAAN
117.8350°
Arg perigee
308.1075°
Mean anomaly
51.5360°
Rev number
9,318

§ Raw data

CHAMRAN-11 61072U 24165B   26145.17390690  .00004366  00000+0  26470-3 0  99972 61072  64.0746 117.8350 0051959 308.1075  51.5360 15.10874414 93189

JSON: /api/v1/satellites/61072 · /tle

For live sub-satellite position, see the globe view (requires WebGL).

§ Visibility from observer

Set your observer location to see the next 7 days of passes ≥ 10°. The values pass through the URL so the page stays shareable.

No JS? Fill the form by hand. The geolocation button needs JavaScript.

§ Radio — SatNOGS DB

ModeDescriptionDownlinkUplink
FSK Mode U - 38k4 2FSK 436.740 MHz

1 transmitter · refreshed weekly from db.satnogs.org